Meridian NAS, MS

1:03 PM CDT on September 19, 2017 (GMT -0500)
Meridian Naval Air Station

Weather History for KNMM - October, 2012

Change the Weather History Date:

Thursday, October 25, 2012

  Actual Average Record
Temperature  
Mean Temperature 66 °F -  
Max Temperature 81 °F 73 °F 87 °F (2016)
Min Temperature 51 °F 50 °F 32 °F (1999)
Cooling Degree Days 1    
Growing Degree Days 16 (Base 50)    
Moisture  
Dew Point 56 °F    
Average Humidity 81    
Maximum Humidity 100    
Minimum Humidity 44    
Precipitation  
Precipitation 0.00 in - - ()
Sea Level Pressure  
Sea Level Pressure 30.03 in    
Wind  
Wind Speed 1 mph (ESE)    
Max Wind Speed 9 mph    
Max Gust Speed -    
Visibility 7 miles    
Events Fog    
Averages and records for this station are not official NWS values.
T = Trace of Precipitation, MM = Missing Value Source: NWS Daily Summary

Daily Weather History Graph

Daily Weather History Graph

Search for Another Location

Airport or City:

Trip Planner

Search our weather history database for the weather conditions in past years. The results will help you decide how hot, cold, wet, or windy it might be!

Date:

Astronomy

Oct. 25, 2012 Rise Set
Actual Time 7:06 AM CDT 6:09 PM CDT
Civil Twilight 6:41 AM CDT 6:34 PM CDT
Nautical Twilight 6:12 AM CDT 7:03 PM CDT
Astronomical Twilight 5:43 AM CDT 7:32 PM CDT
Moon 3:45 PM CDT (10/25) 3:14 AM CDT (10/25)
Length of Visible Light 11h 53m
Length of Day
11h 03m
Waxing Gibbous, 84% of the Moon is Illuminated
Oct 25
Waxing Gibbous
Oct 29
Full
Nov 6
Last Quarter
Nov 13
New
Nov 20
First Quarter

Hourly Weather History & Observations

Time (CDT) Temp. Heat Index Dew Point Humidity Pressure Visibility Wind Dir Wind Speed Gust Speed Precip Events Conditions
12:56 AM 57.0 °F - 55.9 °F 96% 30.06 in 4.0 mi Calm Calm - N/A   Clear
1:56 AM 57.0 °F - 54.0 °F 89% 30.05 in 10.0 mi Calm Calm - N/A   Clear
2:56 AM 57.0 °F - 55.0 °F 93% 30.04 in 4.0 mi Calm Calm - N/A   Clear
3:56 AM 55.0 °F - 52.0 °F 89% 30.04 in 2.0 mi Calm Calm - N/A   Clear
4:03 AM 53.6 °F - 51.8 °F 94% 30.01 in 1.8 mi Calm Calm - N/A   Clear
4:07 AM 55.4 °F - 53.6 °F 94% 30.01 in 4.0 mi Calm Calm - N/A   Clear
4:15 AM 55.4 °F - 51.8 °F 88% 30.01 in 1.5 mi Calm Calm - N/A   Clear
4:17 AM 55.4 °F - 51.8 °F 88% 30.00 in 0.8 mi Calm Calm - N/A   Clear
4:27 AM 55.4 °F - 51.8 °F 88% 30.00 in 1.2 mi Calm Calm - N/A   Clear
4:31 AM 55.4 °F - 51.8 °F 88% 30.00 in 3.0 mi Calm Calm - N/A   Clear
4:56 AM 54.0 °F - 51.1 °F 90% 30.04 in 7.0 mi Calm Calm - N/A   Clear
5:06 AM 53.6 °F - 51.8 °F 94% 30.01 in 2.0 mi Calm Calm - N/A   Clear
5:10 AM 53.6 °F - 51.8 °F 94% 30.01 in 5.0 mi WNW 3.5 mph - N/A   Partly Cloudy
5:56 AM 53.1 °F - 51.1 °F 93% 30.05 in 5.0 mi Calm Calm - N/A   Clear
6:53 AM 51.8 °F - 51.8 °F 100% 30.02 in 7.0 mi Calm Calm - N/A   Scattered Clouds
6:56 AM 52.0 °F - 50.0 °F 93% 30.05 in 6.0 mi East 3.5 mph - N/A   Scattered Clouds
6:59 AM 51.8 °F - 50.0 °F 94% 30.02 in 4.0 mi East 3.5 mph - N/A Fog Scattered Clouds
7:56 AM 57.0 °F - 55.9 °F 96% 30.06 in 5.0 mi East 4.6 mph - N/A   Scattered Clouds
8:56 AM 62.1 °F - 59.0 °F 90% 30.09 in 9.0 mi Calm Calm - N/A   Mostly Cloudy
9:56 AM 64.9 °F - 60.1 °F 84% 30.09 in 10.0 mi Calm Calm - N/A   Mostly Cloudy
10:33 AM 71.6 °F - 59.0 °F 64% 30.06 in 10.0 mi SSE 4.6 mph - N/A   Haze
10:56 AM 73.0 °F - 61.0 °F 66% 30.09 in 10.0 mi Calm Calm - N/A   Mostly Cloudy
11:56 AM 77.0 °F - 62.1 °F 60% 30.07 in 10.0 mi SE 6.9 mph - N/A   Scattered Clouds
12:56 PM 77.0 °F - 57.9 °F 52% 30.05 in 10.0 mi SSE 9.2 mph - N/A   Scattered Clouds
1:56 PM 81.0 °F 81.1 °F 57.9 °F 45% 30.02 in 10.0 mi ENE 8.1 mph - N/A   Scattered Clouds
2:56 PM 81.0 °F 81.0 °F 57.0 °F 44% 30.00 in 10.0 mi SE 4.6 mph - N/A   Scattered Clouds
3:56 PM 79.0 °F - 57.0 °F 47% 30.00 in 10.0 mi South 4.6 mph - N/A   Mostly Cloudy
4:56 PM 80.1 °F 80.6 °F 57.9 °F 47% 30.00 in 10.0 mi Calm Calm - N/A   Mostly Cloudy
5:56 PM 73.9 °F - 62.1 °F 66% 30.00 in 10.0 mi Calm Calm - N/A   Mostly Cloudy
6:56 PM 70.0 °F - 61.0 °F 73% 30.02 in 10.0 mi Calm Calm - N/A   Mostly Cloudy
7:56 PM 66.9 °F - 60.1 °F 79% 30.03 in 10.0 mi Calm Calm - N/A   Mostly Cloudy
8:56 PM 64.9 °F - 61.0 °F 87% 30.03 in 10.0 mi Calm Calm - N/A   Mostly Cloudy
9:56 PM 62.1 °F - 60.1 °F 93% 30.02 in 10.0 mi East 3.5 mph - N/A   Mostly Cloudy
10:56 PM 63.0 °F - 59.0 °F 87% 30.02 in 10.0 mi Calm Calm - N/A   Mostly Cloudy
11:56 PM 61.0 °F - 59.0 °F 93% 30.01 in 10.0 mi Calm Calm - N/A   Mostly Cloudy